Location: Derby
(52.9213°N, 1.4761°W)
Time: 02:16:54
(UTC+01:00)

Vanguard 2 Rocket - Pass Details

Date: 21 May 2025
Orbit: 554 x 3293 km, 32.9° (Epoch: 12 June)

Event Time Altitude Azimuth Distance (km) Brightness Sun altitude
Rises 02:55:52 0° 255° (WSW) 6,557 10.9 -12.8°
Reaches altitude 10° 03:01:49 10° 244° (WSW) 5,083 10.2 -12.4°
Maximum altitude 03:11:30 24° 200° (SSW) 3,179 9.1 -11.7°
Drops below altitude 10° 03:18:11 10° 151° (SSE) 3,387 9.5 -11.2°
Sets 03:21:12 0° 136° (SE) 4,003 10.1 -10.9°
